RH
20 18 19 18 18 14 14 16 15 14 18 26 28 28 27 45 44 25 16 15 15 14 18 18 18 18 17 14 12 11 9 8 7 9 7 7 9 10 10 9 9 9 9 10 12 15 16
16 14 12 14 10 12 11 14 17 17 18 24 30 29 29 27 25 24 19 19 17 16 18 19 18 20 18 16 13 11 9 8 8 10 8 7 10 11 11 9 10 11 12 13 15 19 20
16 14 11 8 7 6 8 14 22 24 21 24 33 33 32 30 26 33 49 49 20 20 20 19 21 22 20 15 12 9 8 8 8 11 12 8 10 11 11 10 12 13 14 15 14 18 22
15 14 10 6 4 4 6 10 33 41 34 29 36 37 37 33 30 26 26 38 23 20 20 22 23 23 19 14 10 9 9 8 10 13 14 9 10 12 12 11 12 12 13 13 12 13 15
14 10 6 3 3 3 5 11 34 70 52 38 40 41 43 40 34 30 26 24 24 23 24 26 27 23 16 12 9 10 10 10 12 15 15 11 10 12 12 11 13 11 12 12 12 12 13
8 5 3 2 2 3 8 13 24 76 76 50 51 50 48 55 39 33 31 28 27 27 28 29 27 20 15 12 10 11 12 12 14 15 16 14 11 12 13 13 14 11 12 11 12 14 13
5 3 2 2 2 6 20 31 41 59 84 59 52 57 53 46 52 38 36 34 33 32 33 34 26 17 14 12 12 13 14 15 16 17 19 18 13 13 14 14 14 13 12 12 12 14 15
3 3 2 2 4 19 41 41 42 91 91 84 50 61 59 52 48 66 41 38 38 37 36 32 22 16 15 14 15 15 14 15 18 19 21 24 19 15 14 15 16 16 14 14 14 14 15
3 2 3 4 22 43 52 53 77 99 82 90 74 61 64 58 53 47 47 44 42 41 35 26 20 16 16 16 17 16 16 17 18 22 24 28 24 20 16 14 15 18 18 17 17 16 16
3 3 5 7 46 65 59 53 70 76 97 99 89 77 71 71 61 54 52 51 49 40 30 23 20 18 16 18 18 18 17 16 16 19 24 28 30 28 24 18 16 16 17 18 17 18 19
4 7 7 9 44 68 69 75 83 100 92 89 87 85 82 90 76 63 60 55 46 36 28 23 22 22 20 19 19 19 18 18 19 20 21 24 26 28 29 28 24 19 18 18 18 18 19
7 10 11 13 48 76 71 63 69 86 99 95 93 86 84 86 77 67 58 49 41 34 30 25 27 27 25 25 23 22 21 21 20 20 19 19 19 20 24 25 25 25 24 23 23 23 22
11 12 13 15 17 27 28 60 73 86 98 100 100 98 92 83 76 66 58 49 39 34 34 31 31 30 30 29 28 26 26 26 25 24 23 22 22 21 20 20 20 22 23 21 20 21 20
13 14 15 22 33 97 94 80 80 92 99 98 100 100 98 82 70 63 51 43 40 40 42 39 36 36 37 36 36 35 34 32 30 29 27 26 25 24 24 23 23 22 22 23 22 23 23
13 16 32 67 85 88 87 100 97 77 98 99 99 99 98 93 74 58 51 46 47 47 45 45 44 44 42 40 39 38 35 35 34 34 34 32 31 31 30 29 28 29 29 30 29 28 26
26 45 77 92 91 100 97 100 100 98 98 100 99 99 98 83 66 59 55 53 53 54 52 51 48 46 41 39 38 38 37 37 38 37 36 37 35 36 35 35 34 35 36 38 43 46 45
90 88 98 99 99 97 97 100 100 100 100 100 100 98 98 77 67 63 57 57 58 55 54 49 49 48 47 48 49 47 44 52 50 46 48 49 50 49 45 46 49 54 65 71 77 78 84
100 100 98 97 99 99 100 100 100 100 99 100 100 99 98 85 72 64 61 60 57 54 54 55 56 59 67 78 81 79 74 80 93 89 72 56 55 54 62 77 87 90 93 96 95 88 85
100 98 96 96 100 96 99 100 100 99 100 100 100 100 97 91 79 78 71 70 66 68 66 66 89 97 95 94 89 85 90 93 91 92 88 89 82 84 82 83 83 81 77 69 60 57 50
94 87 98 97 99 99 98 100 100 99 100 99 98 98 97 97 91 88 80 80 85 87 97 99 98 97 95 93 92 89 86 81 80 82 81 78 75 71 62 59 53 44 30 19 15 15 11
100 98 98 99 99 99 99 100 99 100 100 100 98 100 100 100 99 96 93 88 96 100 99 97 90 85 84 81 81 79 76 73 69 65 56 50 39 30 23 28 28 23 12 7 6 5 6
99 100 100 100 100 100 100 100 99 96 99 99 98 97 98 100 99 98 98 100 98 98 98 93 82 77 75 71 65 59 50 40 34 29 27 24 22 15 10 9 10 13 7 6 6 6 7
100 100 100 100 100 98 98 100 99 98 99 99 98 100 98 100 100 100 99 97 97 96 95 88 73 56 45 39 36 33 27 22 18 15 11 10 8 7 8 7 6 8 7 7 7 7 7
100 100 100 100 100 100 100 100 100 100 99 99 100 99 99 98 99 98 97 96 92 76 53 43 36 37 33 28 22 20 16 14 12 10 8 8 8 8 8 8 8 9 9 9 9 9 10
100 100 100 100 100 99 98 94 99 100 100 100 98 98 99 99 99 98 90 69 62 46 39 34 26 23 17 13 12 12 9 10 10 10 10 11 12 13 12 13 12 11 12 12 12 11 11
100 99 100 100 99 100 100 100 99 99 99 99 98 99 99 95 90 84 83 69 45 30 24 17 13 12 12 11 11 12 12 13 12 12 13 14 15 16 16 17 14 12 13 13 14 13 14
99 99 100 99 99 98 99 99 100 99 97 94 96 80 68 72 80 88 82 64 34 19 16 14 13 13 14 15 14 12 11 11 12 12 13 16 20 22 28 26 19 19 19 20 19 17 18
100 100 100 100 100 99 100 99 99 99 100 100 99 94 86 63 32 23 21 22 19 17 16 16 15 14 14 13 14 16 16 16 16 17 22 29 37 34 35 34 27 25 25 26 25 25 24
100 100 100 100 100 100 100 99 99 96 87 67 69 58 47 58 72 62 38 23 18 18 18 18 16 16 17 19 20 20 19 19 24 30 41 45 43 44 42 38 34 33 31 31 30 27 21
Wind_Speed
29 31 32 31 28 27 21 21 20 18 20 22 23 23 24 24 23 22 22 22 20 20 20 18 18 19 18 20 21 21 21 20 19 17 17 15 14 12 13 12 11 12 13 12 12 11 11
29 34 35 35 32 29 26 22 23 21 21 24 24 25 24 24 24 24 22 22 22 21 21 20 21 20 21 22 23 21 20 20 21 18 18 16 15 14 14 13 11 11 11 10 9 8 7
32 35 37 37 34 31 28 26 25 25 24 27 27 26 26 26 26 27 29 25 24 22 21 22 22 22 22 22 22 22 21 22 21 19 18 18 16 15 14 13 11 11 11 10 10 9 8
36 38 40 39 34 31 30 29 29 29 28 29 30 29 27 27 27 26 27 30 27 24 24 23 23 23 22 22 23 22 21 21 20 19 19 19 18 17 16 14 13 12 12 11 11 10 10
39 42 42 39 34 31 31 33 32 30 30 31 30 30 28 25 28 27 27 28 26 26 25 24 23 22 22 23 22 21 21 21 21 20 21 20 19 18 17 16 15 14 13 13 12 10 11
42 44 42 38 35 32 31 32 34 31 30 31 31 31 29 29 28 28 27 27 27 26 25 25 23 24 23 21 21 20 20 20 21 21 21 20 20 19 19 18 18 16 15 14 13 13 12
46 45 40 36 32 30 30 32 31 32 30 30 32 31 29 29 30 28 28 27 26 26 25 25 24 24 22 21 20 18 18 19 20 21 21 20 20 21 23 20 21 20 19 17 18 17 15
46 43 37 32 30 29 30 31 30 27 31 31 32 31 30 29 30 31 29 28 27 27 25 25 24 24 22 20 20 19 18 18 20 22 22 21 20 22 23 23 23 23 22 22 23 22 21
43 38 31 29 28 28 28 30 31 36 35 33 31 32 30 29 29 29 28 28 28 28 27 26 25 23 21 21 20 19 19 18 20 22 23 23 22 23 24 25 26 26 26 26 28 28 27
37 31 27 27 27 27 29 31 29 28 25 26 34 31 30 29 29 28 27 28 29 27 27 24 23 23 21 20 20 21 21 21 22 24 23 23 23 25 26 27 28 28 29 30 32 32 31
30 27 25 24 26 28 30 31 29 24 28 26 26 29 29 33 30 28 26 27 27 26 26 22 20 19 18 19 19 21 20 20 21 22 23 22 24 26 28 29 29 29 30 32 34 35 35
28 26 25 27 28 32 33 33 32 31 31 29 32 34 31 31 29 28 27 28 26 25 23 19 18 17 17 18 19 20 20 20 21 22 24 24 24 25 26 27 29 30 30 33 35 35 38
25 27 31 30 31 31 29 28 26 28 30 32 34 31 30 29 28 27 25 26 24 23 20 21 20 20 21 21 22 23 23 23 24 24 24 25 25 25 25 27 29 29 30 33 36 35 36
27 31 30 26 23 22 22 22 22 22 32 30 30 31 27 26 26 25 25 24 22 21 21 21 20 21 21 22 23 23 24 25 26 26 27 28 28 27 27 29 29 29 30 32 36 36 37
28 22 18 19 21 20 20 19 20 26 23 29 31 29 33 25 25 24 24 22 21 21 22 22 23 24 24 24 26 26 26 27 27 28 30 30 30 28 28 29 30 31 32 34 37 39 41
19 17 18 18 19 18 18 19 17 19 25 27 25 27 22 24 24 23 23 22 21 22 23 24 25 27 25 26 26 26 26 25 26 27 28 29 30 28 28 30 30 32 33 33 35 39 43
15 20 20 17 14 14 16 18 19 22 27 24 22 20 22 23 23 23 22 22 23 24 24 26 27 28 26 26 26 25 26 25 27 27 28 30 31 30 30 30 32 33 34 36 39 43 43
17 18 22 18 17 19 19 20 25 27 27 23 22 22 22 23 23 22 22 23 24 24 26 27 27 28 28 29 29 29 29 29 28 29 30 31 33 33 34 35 35 35 35 36 39 40 40
20 21 24 25 26 24 23 23 29 28 24 23 23 23 22 23 22 22 23 24 25 24 28 30 31 30 28 28 29 28 28 28 29 30 31 32 34 34 34 33 34 33 33 34 35 36 37
23 23 24 21 20 17 15 21 26 22 22 24 25 25 27 27 26 26 26 26 28 30 31 28 24 23 25 27 28 28 29 30 29 30 30 31 30 31 31 34 34 34 34 33 35 37 36
17 14 10 5 6 9 15 18 17 19 20 19 22 24 27 29 30 30 30 31 34 28 22 22 24 27 28 28 28 28 28 27 28 28 29 31 30 31 31 35 37 37 37 37 38 38 44
5 7 10 11 15 19 16 15 21 21 20 22 25 23 31 33 35 34 32 21 22 22 22 24 25 25 25 24 25 25 26 27 28 29 31 33 33 33 33 36 39 43 42 41 41 42 45
9 5 8 15 15 15 13 16 20 25 23 22 23 24 21 21 19 19 19 19 20 21 22 23 23 23 23 24 25 27 28 30 30 32 32 34 35 37 40 37 39 43 40 43 44 46 47
6 9 9 9 14 17 19 18 18 19 20 17 16 16 14 14 14 16 17 18 20 21 22 23 23 24 25 27 27 28 29 31 32 33 33 34 35 39 41 42 45 46 46 48 49 49 51
7 5 11 14 18 14 17 19 19 17 17 18 17 15 14 14 16 18 19 19 21 22 22 23 23 24 25 25 28 29 28 32 32 34 35 36 38 42 45 46 48 49 51 53 55 55 57
7 7 6 4 9 12 14 15 17 17 18 17 16 15 15 14 15 17 18 19 19 21 22 23 23 25 26 27 29 31 33 35 38 40 41 43 45 48 49 52 55 56 56 58 59 61 61
7 9 10 12 14 15 15 15 14 12 10 10 12 13 13 15 17 19 20 20 21 22 24 25 26 28 29 31 34 37 39 42 45 46 47 48 50 51 54 57 58 57 59 61 63 66 66
12 13 15 15 14 14 14 15 16 18 17 16 14 13 13 14 15 18 20 23 25 26 28 30 33 32 36 39 42 44 47 47 49 49 51 52 55 57 59 61 62 62 63 64 65 65 67
14 14 12 12 8 7 8 10 9 8 8 10 13 14 16 20 23 24 26 28 29 30 34 36 38 42 45 47 48 50 50 51 51 53 54 56 58 58 60 62 63 62 63 63 65 66 65
Wind_Direction
296 299 300 299 300 296 285 279 278 274 257 241 238 237 231 227 235 240 232 235 235 243 250 259 268 274 279 280 278 277 274 272 267 260 252 255 257 262 271 277 279 281 282 275 273 271 267
297 298 299 297 295 288 285 269 265 263 258 245 238 236 235 229 230 234 236 240 240 244 251 261 267 275 275 277 275 274 271 265 262 257 252 255 251 257 266 274 272 274 272 270 269 267 268
294 297 296 296 291 285 275 262 258 254 250 245 236 235 234 236 232 231 245 252 248 249 258 264 270 274 278 278 276 270 264 258 255 257 254 250 249 251 260 265 258 262 264 266 269 266 264
293 294 295 294 287 279 267 257 248 252 247 240 237 233 234 236 237 234 232 237 249 254 258 264 270 275 278 274 268 265 264 258 253 257 252 250 245 248 254 258 251 251 257 262 268 262 263
293 294 294 291 282 274 263 256 247 246 247 242 237 235 232 236 240 236 236 238 243 250 257 263 270 276 274 269 264 262 261 258 252 256 249 249 247 246 252 253 248 249 252 251 256 259 258
292 292 291 288 279 269 260 255 251 244 246 245 238 236 234 232 241 239 238 241 245 251 259 267 273 272 270 265 261 261 258 256 253 251 247 248 249 247 249 250 248 250 246 248 248 249 253
292 291 288 282 272 262 255 251 250 250 244 245 240 238 234 232 232 243 243 245 250 255 262 268 271 268 264 260 258 258 258 255 251 247 246 249 250 248 247 250 254 251 251 250 250 249 238
289 289 285 273 264 258 256 253 249 248 244 240 241 238 236 235 234 237 244 248 253 258 263 269 269 265 262 257 254 254 256 255 252 250 249 249 250 253 253 252 253 255 256 257 254 251 252
287 285 275 265 260 257 254 254 246 256 239 236 236 237 236 237 236 237 242 250 256 261 264 265 265 262 259 253 251 253 255 256 255 253 250 251 251 254 256 256 254 255 259 259 262 262 262
282 275 268 263 258 255 250 249 256 250 247 240 237 231 234 237 239 239 245 251 257 264 264 262 260 259 255 250 249 251 254 256 256 257 254 254 256 255 257 258 259 258 259 260 263 266 267
271 264 269 267 257 246 246 253 252 255 242 243 245 231 231 238 240 243 247 256 259 261 262 260 258 255 254 249 250 251 254 255 254 257 259 259 256 258 258 260 261 262 263 265 267 268 270
264 266 275 266 253 246 251 255 252 246 241 234 232 232 234 237 239 245 248 256 257 255 256 254 253 249 248 248 248 251 253 255 258 261 262 261 258 258 259 260 262 263 264 265 267 270 271
264 272 274 266 262 258 253 252 245 244 243 235 243 223 232 235 239 243 248 252 251 251 252 249 250 251 252 254 255 257 259 260 261 260 261 261 263 263 264 264 265 267 268 271 271 272 276
269 274 270 264 256 251 251 244 238 241 220 233 231 218 225 235 239 243 245 245 247 248 248 251 252 254 256 258 259 261 262 263 263 264 264 265 266 265 264 264 266 267 268 270 274 277 277
274 267 262 253 251 256 246 235 240 237 249 237 223 224 222 235 239 240 241 241 244 246 249 252 255 258 261 264 265 265 265 265 267 267 268 268 267 266 266 267 267 267 267 269 272 275 277
260 259 257 254 254 248 239 236 243 249 246 218 218 214 227 233 235 237 239 242 246 248 250 254 257 261 263 265 266 267 268 269 267 266 267 268 270 269 268 266 267 267 268 270 271 274 275
259 266 252 253 253 239 238 248 250 248 224 211 215 218 226 231 233 237 241 244 247 251 255 258 261 265 265 266 267 269 269 269 267 267 268 269 270 272 270 270 269 270 271 273 273 273 277
262 258 261 263 260 253 260 240 244 235 213 210 216 218 227 233 236 239 243 247 250 254 257 259 261 263 266 270 271 270 270 272 272 268 267 268 269 269 272 274 274 274 274 272 273 275 276
272 271 267 263 261 255 244 248 231 219 204 211 216 221 228 235 239 243 245 249 253 257 261 262 268 265 265 268 268 268 269 271 272 271 270 270 271 274 274 275 275 275 275 275 275 275 277
284 271 273 260 250 234 236 231 223 208 210 224 227 228 229 236 240 239 244 250 254 259 273 260 259 265 266 267 269 270 270 271 272 272 273 274 275 274 276 277 276 276 275 276 276 277 278
285 263 221 191 205 204 212 212 221 216 221 225 238 231 233 241 249 253 253 260 266 261 255 263 268 267 267 269 270 271 272 273 274 274 273 273 273 274 274 275 276 277 278 279 281 282 281
211 201 184 196 192 185 196 207 220 229 239 247 240 248 254 259 257 258 264 248 249 257 266 271 271 270 271 271 272 273 274 275 275 274 274 274 274 273 272 275 276 276 280 283 283 283 283
219 224 208 203 202 205 219 234 244 239 244 254 255 256 249 249 245 248 255 261 267 271 271 270 271 271 271 272 273 275 275 275 275 276 277 279 281 280 279 280 279 279 284 284 284 284 285
217 234 241 213 207 219 226 235 244 250 254 239 234 234 236 244 255 265 272 274 273 270 269 270 271 272 274 274 274 275 278 279 279 280 282 284 284 284 285 286 285 287 287 287 287 286 284
258 243 244 238 233 248 245 254 253 242 232 235 237 244 249 254 259 260 262 263 265 267 269 269 271 273 275 277 280 281 282 282 285 286 289 288 285 286 287 287 287 288 288 288 287 285 285
209 207 213 257 247 254 257 253 234 230 234 233 238 248 257 261 264 264 266 268 271 273 278 279 280 282 284 284 284 284 286 287 287 287 287 286 284 285 287 286 287 288 290 289 288 287 287
260 267 278 288 285 279 283 261 244 235 233 241 250 252 253 258 262 270 275 277 279 280 281 282 282 286 287 286 287 289 289 289 289 289 288 287 286 286 288 288 288 289 289 289 289 291 290
283 281 273 274 271 271 262 258 256 262 267 266 268 272 278 281 280 282 284 285 283 282 283 284 286 287 285 288 289 289 289 290 288 287 286 286 287 289 291 291 293 293 293 293 293 294 294
290 294 299 289 284 270 260 266 262 254 262 280 282 283 283 284 285 286 285 284 285 286 286 286 286 287 288 288 288 287 287 286 286 285 287 288 290 291 291 292 293 294 293 293 294 295 295